{"data":{"norad_id":62240,"epoch":"2026-05-25T03:01:29.817120Z","epoch_age_seconds":74567,"freshness":"FRESH","line1":"1 62240U 24232D   26145.12603955  .00000303  00000+0  12202-3 0  9991","line2":"2 62240  89.0081  18.6912 0013745 263.8624  96.1003 14.25511828124665","mean_motion":14.25511828,"eccentricity":0.0013745,"inclination_deg":89.0081,"raan_deg":18.6912,"arg_perigee_deg":263.8624,"mean_anomaly_deg":96.1003,"bstar":0.00012202,"rev_number":12466,"period_min":101.0163487749,"perigee_km":796.89666041341,"apogee_km":816.64797612934,"semimajor_km":7184.9093182714,"source":"CELESTRAK","updated_at":"2026-05-25T13:38:02.865737Z"}}